Change the Weather History Date:

Friday, February 8, 2013

  Actual Average Record
Temperature  
Mean Temperature 47 °F 41 °F  
Max Temperature 55 °F 50 °F 75 °F (1937)
Min Temperature 38 °F 31 °F -7 °F (1895)
Degree Days  
Heating Degree Days 18 24  
Month to date heating degree days 197 200  
Since 1 July heating degree days 2245 2462  
Cooling Degree Days 0 0  
Month to date cooling degree days 0 0  
Year to date cooling degree days 2 0  
Moisture  
Dew Point 41 °F    
Average Humidity 73    
Maximum Humidity 96    
Minimum Humidity 50    
Precipitation  
Precipitation 0.15 in 0.14 in 2.03 in (1911)
Month to date precipitation 0.25 1.21  
Year to date precipitation 12.92 5.53  
Snow  
Snow 0.00 in 0.10 in - ()
Month to date snowfall 1.2 0.6  
Since 1 July snowfall 2.6 4.1  
Snow Depth 0.00 in    
Sea Level Pressure  
Sea Level Pressure 30.03 in    
Wind  
Wind Speed 9 mph (West)    
Max Wind Speed 18 mph    
Max Gust Speed 24 mph    
Visibility 6 miles    
Events Rain    
T = Trace of Precipitation, MM = Missing Value Source: NWS Daily Summary

Daily Weather History Graph

Daily Weather History Graph

Search for Another Location

Airport or City:

Trip Planner

Search our weather history database for the weather conditions in past years. The results will help you decide how hot, cold, wet, or windy it might be!

Date:

Astronomy

Feb. 08, 2013 Rise Set
Actual Time 7:29 AM EST 6:10 PM EST
Civil Twilight 7:03 AM EST 6:37 PM EST
Nautical Twilight 6:33 AM EST 7:07 PM EST
Astronomical Twilight 6:03 AM EST 7:37 PM EST
Moon 5:56 AM EST (2/8) 4:44 PM EST (2/8)
Length of Visible Light 11h 33m
Length of Day
10h 40m
Waning Crescent, 3% of the Moon is Illuminated
Feb 8
Waning Crescent
Feb 10
New
Feb 17
First Quarter
Feb 25
Full
Mar 4
Last Quarter

Hourly Weather History & Observations

Time (EST) Temp. Windchill Dew Point Humidity Pressure Visibility Wind Dir Wind Speed Gust Speed Precip Events Conditions
12:53 AM 46.9 °F - 43.0 °F 86% 29.93 in 10.0 mi Calm Calm - 0.00 in Rain Light Rain
1:53 AM 46.0 °F - 43.0 °F 89% 29.92 in 10.0 mi Calm Calm - 0.00 in   Overcast
2:53 AM 45.0 °F 43.5 °F 42.1 °F 90% 29.92 in 10.0 mi WSW 3.5 mph - N/A   Overcast
3:53 AM 44.1 °F - 41.0 °F 89% 29.91 in 9.0 mi Calm Calm - N/A   Scattered Clouds
4:53 AM 44.1 °F - 42.1 °F 93% 29.91 in 6.0 mi Calm Calm - N/A   Overcast
5:53 AM 43.0 °F - 41.0 °F 93% 29.91 in 8.0 mi Calm Calm - N/A   Mostly Cloudy
6:00 AM 44.6 °F - 41.0 °F 87% 29.91 in 7.0 mi Calm Calm - N/A   Mostly Cloudy
6:53 AM 44.1 °F 40.8 °F 43.0 °F 96% 29.93 in 6.0 mi WSW 5.8 mph - N/A   Overcast
7:15 AM 44.6 °F 39.7 °F 42.8 °F 93% 29.94 in 3.0 mi West 9.2 mph - 0.00 in Rain Light Rain
7:20 AM 44.6 °F 40.2 °F 42.8 °F 93% 29.94 in 2.5 mi West 8.1 mph - 0.00 in Rain Light Rain
7:53 AM 46.0 °F 41.4 °F 43.0 °F 89% 29.96 in 2.5 mi WSW 9.2 mph - 0.01 in Rain Light Rain
8:01 AM 46.4 °F 41.9 °F 44.6 °F 93% 29.96 in 1.5 mi SW 9.2 mph - 0.00 in Rain Light Rain
8:06 AM 46.4 °F 42.4 °F 44.6 °F 93% 29.96 in 1.2 mi WSW 8.1 mph - 0.01 in Rain Light Rain
8:29 AM 46.4 °F 41.9 °F 44.6 °F 93% 29.98 in 1.0 mi West 9.2 mph - 0.03 in Rain Light Rain
8:31 AM 46.4 °F 41.5 °F 44.6 °F 93% 29.98 in 0.8 mi West 10.4 mph - 0.04 in Rain Light Rain
8:37 AM 46.4 °F 40.7 °F 44.6 °F 93% 29.98 in 1.0 mi West 12.7 mph - 0.05 in Rain Light Rain
8:53 AM 46.9 °F - 44.1 °F 90% 29.99 in 1.2 mi West 13.8 mph - 0.07 in Rain Light Rain
9:00 AM 46.4 °F 40.1 °F 44.6 °F 93% 29.99 in 1.5 mi WSW 15.0 mph - 0.00 in Rain Light Rain
9:06 AM 46.4 °F 40.1 °F 44.6 °F 93% 29.98 in 2.0 mi WSW 15.0 mph - 0.01 in Rain Light Rain
9:16 AM 46.4 °F 40.4 °F 44.6 °F 93% 29.99 in 3.0 mi WSW 13.8 mph - 0.02 in Rain Rain
9:22 AM 46.4 °F 40.7 °F 44.6 °F 93% 29.99 in 2.0 mi WSW 12.7 mph - 0.03 in Rain Rain
9:49 AM 46.4 °F 40.4 °F 44.6 °F 93% 30.00 in 2.5 mi SW 13.8 mph - 0.05 in Rain Light Rain
9:53 AM 46.9 °F - 45.0 °F 93% 30.00 in 3.0 mi SW 12.7 mph - 0.06 in Rain Rain
10:02 AM 46.4 °F 41.1 °F 44.6 °F 93% 30.00 in 4.0 mi SW 11.5 mph - 0.00 in Rain Light Rain
10:30 AM 48.2 °F - 46.4 °F 93% 30.01 in 2.5 mi SW 9.2 mph - 0.01 in Rain Rain
10:53 AM 48.0 °F - 46.0 °F 93% 30.02 in 3.0 mi SW 10.4 mph - 0.01 in Rain Light Rain
10:56 AM 48.2 °F - 46.4 °F 93% 30.02 in 2.5 mi SW 10.4 mph - 0.00 in Rain Light Rain
11:00 AM 48.2 °F - 46.4 °F 93% 30.02 in 2.5 mi SW 10.4 mph - 0.00 in Rain Light Rain
11:22 AM 48.2 °F - 46.4 °F 93% 30.02 in 2.5 mi WSW 8.1 mph - 0.00 in Rain Light Rain
11:27 AM 48.2 °F - 46.4 °F 93% 30.02 in 3.0 mi West 5.8 mph - 0.00 in Rain Light Rain
11:48 AM 48.2 °F - 46.4 °F 93% 30.03 in 5.0 mi West 6.9 mph - 0.00 in   Overcast
11:53 AM 48.9 °F - 46.0 °F 90% 30.03 in 7.0 mi West 6.9 mph - 0.00 in   Overcast
12:06 PM 48.2 °F - 46.4 °F 93% 30.02 in 10.0 mi West 5.8 mph - N/A   Mostly Cloudy
12:12 PM 50.0 °F - 46.4 °F 87% 30.02 in 10.0 mi West 6.9 mph - N/A   Mostly Cloudy
12:36 PM 51.8 °F - 46.4 °F 82% 30.03 in 10.0 mi WNW 6.9 mph - N/A   Scattered Clouds
12:53 PM 51.1 °F - 46.0 °F 83% 30.02 in 10.0 mi WNW 6.9 mph - N/A   Mostly Cloudy
1:53 PM 54.0 °F - 39.0 °F 57% 30.03 in 10.0 mi NW 10.4 mph - N/A   Scattered Clouds
2:53 PM 54.0 °F - 35.1 °F 49% 30.04 in 10.0 mi NW 15.0 mph 20.7 mph N/A   Scattered Clouds
3:53 PM 50.0 °F - 33.1 °F 52% 30.08 in 10.0 mi North 16.1 mph 21.9 mph N/A   Scattered Clouds
4:53 PM 48.0 °F - 32.0 °F 54% 30.11 in 10.0 mi North 13.8 mph - N/A   Scattered Clouds
5:53 PM 43.0 °F 35.1 °F 30.0 °F 60% 30.16 in 10.0 mi North 17.3 mph 24.2 mph N/A   Partly Cloudy
6:53 PM 41.0 °F 34.3 °F 28.9 °F 62% 30.19 in 10.0 mi North 11.5 mph - N/A   Partly Cloudy
7:41 PM 41.0 °F 34.7 °F 28.4 °F 61% 30.21 in 10.0 mi North 10.4 mph - N/A   Mostly Cloudy
7:53 PM 41.0 °F 35.8 °F 30.0 °F 65% 30.22 in 10.0 mi NNE 8.1 mph - N/A   Mostly Cloudy
8:53 PM 39.9 °F 31.1 °F 28.9 °F 65% 30.25 in 10.0 mi North 17.3 mph - N/A   Overcast
9:53 PM 39.0 °F 31.8 °F 28.9 °F 67% 30.28 in 10.0 mi North 11.5 mph - N/A   Overcast
10:53 PM 39.0 °F 34.0 °F 28.0 °F 65% 30.27 in 10.0 mi North 6.9 mph - N/A   Overcast
11:53 PM 39.0 °F 31.8 °F 28.9 °F 67% 30.26 in 10.0 mi NE 11.5 mph - N/A   Overcast